Time,TemperatureF,DewpointF,PressureIn,WindDirection,WindDirectionDegrees,WindSpeedMPH,WindSpeedGustMPH,Humidity,HourlyPrecipIn,Conditions,Clouds,dailyrainin,SoftwareType,DateUTC
2013-01-10 00:00:00,20.1,18.1,30.15,South,173,0.0,0.0,92,0.00,,,0.00,Wunderground v.1.15,2013-01-10 06:00:00,
2013-01-10 00:30:00,20.9,17.1,30.14,South,173,0.0,0.0,85,0.00,,,0.00,Wunderground v.1.15,2013-01-10 06:30:00,
2013-01-10 01:00:00,22.9,19.3,30.14,SSE,165,0.0,2.0,86,0.00,,,0.00,Wunderground v.1.15,2013-01-10 07:00:00,
2013-01-10 01:30:00,24.8,20.7,30.14,SSW,206,0.0,0.0,84,0.00,,,0.00,Wunderground v.1.15,2013-01-10 07:30:00,
2013-01-10 02:00:00,25.7,21.8,30.14,SSE,157,1.0,1.0,85,0.00,,,0.00,Wunderground v.1.15,2013-01-10 08:00:00,
2013-01-10 02:30:00,26.4,22.2,30.13,South,171,1.0,1.0,84,0.00,,,0.00,Wunderground v.1.15,2013-01-10 08:30:00,
2013-01-10 03:00:00,26.5,22.3,30.12,SE,140,0.0,1.0,84,0.00,,,0.00,Wunderground v.1.15,2013-01-10 09:00:00,
2013-01-10 03:30:00,27.1,23.2,30.12,SSE,148,1.0,5.0,85,0.00,,,0.00,Wunderground v.1.15,2013-01-10 09:30:00,
2013-01-10 04:00:00,27.5,23.3,30.10,SSE,157,1.0,1.0,84,0.00,,,0.00,Wunderground v.1.15,2013-01-10 10:00:00,
2013-01-10 04:30:00,27.5,23.6,30.09,South,177,1.0,1.0,85,0.00,,,0.00,Wunderground v.1.15,2013-01-10 10:30:00,
2013-01-10 05:00:00,28.1,23.9,30.09,SSW,201,0.0,0.0,84,0.00,,,0.00,Wunderground v.1.15,2013-01-10 11:00:00,
2013-01-10 05:30:00,27.4,23.2,30.08,SSE,159,0.0,0.0,84,0.00,,,0.00,Wunderground v.1.15,2013-01-10 11:30:00,
2013-01-10 06:00:00,27.8,23.6,30.08,SSE,162,1.0,1.0,84,0.00,,,0.00,Wunderground v.1.15,2013-01-10 12:00:00,
2013-01-10 06:30:00,27.2,23.3,30.08,SSE,164,0.0,2.0,85,0.00,,,0.00,Wunderground v.1.15,2013-01-10 12:30:00,
2013-01-10 07:00:00,27.7,24.1,30.07,SSE,154,1.0,1.0,86,0.00,,,0.00,Wunderground v.1.15,2013-01-10 13:00:00,
2013-01-10 07:30:00,28.6,24.7,30.07,SSE,161,0.0,1.0,85,0.00,,,0.00,Wunderground v.1.15,2013-01-10 13:30:00,
2013-01-10 08:00:00,29.9,25.4,30.07,South,169,1.0,1.0,83,0.00,,,0.00,Wunderground v.1.15,2013-01-10 14:00:00,
2013-01-10 08:30:00,30.8,25.7,30.06,SSW,194,1.0,1.0,81,0.00,,,0.00,Wunderground v.1.15,2013-01-10 14:30:00,
2013-01-10 09:00:00,32.0,26.2,30.06,ESE,121,3.0,4.0,79,0.00,,,0.00,Wunderground v.1.15,2013-01-10 15:00:00,
2013-01-10 09:30:00,33.0,26.9,30.06,SSW,193,1.0,1.0,78,0.00,,,0.00,Wunderground v.1.15,2013-01-10 15:30:00,
2013-01-10 10:00:00,34.5,27.1,30.06,SSW,199,4.0,5.0,74,0.00,,,0.00,Wunderground v.1.15,2013-01-10 16:00:00,
2013-01-10 10:30:00,35.8,27.0,30.04,SW,215,4.0,4.0,70,0.00,,,0.00,Wunderground v.1.15,2013-01-10 16:30:00,
2013-01-10 11:00:00,36.3,26.4,30.03,South,169,4.0,4.0,67,0.00,,,0.00,Wunderground v.1.15,2013-01-10 17:00:00,
2013-01-10 11:30:00,36.5,26.6,30.01,SSE,152,2.0,2.0,67,0.00,,,0.00,Wunderground v.1.15,2013-01-10 17:30:00,
2013-01-10 12:00:00,39.4,26.2,29.98,SSE,148,2.0,2.0,59,0.00,,,0.00,Wunderground v.1.15,2013-01-10 18:00:00,
2013-01-10 12:30:00,40.7,25.8,29.96,SSE,164,3.0,3.0,55,0.00,,,0.00,Wunderground v.1.15,2013-01-10 18:30:00,
2013-01-10 13:00:00,45.2,23.4,29.95,South,178,4.0,4.0,42,0.00,,,0.00,Wunderground v.1.15,2013-01-10 19:00:00,
2013-01-10 13:30:00,43.5,24.1,29.93,SSW,205,3.0,3.0,46,0.00,,,0.00,Wunderground v.1.15,2013-01-10 19:30:00,
2013-01-10 14:00:00,42.6,22.7,29.92,ESE,105,2.0,4.0,45,0.00,,,0.00,Wunderground v.1.15,2013-01-10 20:00:00,
2013-01-10 14:30:00,41.3,22.6,29.92,SE,127,4.0,4.0,47,0.00,,,0.00,Wunderground v.1.15,2013-01-10 20:30:00,
2013-01-10 15:00:00,39.9,23.2,29.92,SSW,201,3.0,3.0,51,0.00,,,0.00,Wunderground v.1.15,2013-01-10 21:00:00,
2013-01-10 15:30:00,38.7,24.8,29.92,SSE,148,2.0,2.0,57,0.00,,,0.00,Wunderground v.1.15,2013-01-10 21:30:00,
2013-01-10 16:00:00,37.8,23.9,29.91,ESE,119,2.0,2.0,57,0.00,,,0.00,Wunderground v.1.15,2013-01-10 22:00:00,
2013-01-10 16:30:00,36.9,23.9,29.88,South,191,2.0,2.0,59,0.00,,,0.00,Wunderground v.1.15,2013-01-10 22:30:00,
2013-01-10 17:00:00,36.7,23.7,29.86,South,174,1.0,1.0,59,0.00,,,0.00,Wunderground v.1.15,2013-01-10 23:00:00,
2013-01-10 17:30:00,36.7,24.1,29.84,ESE,104,1.0,2.0,60,0.00,,,0.00,Wunderground v.1.15,2013-01-10 23:30:00,
2013-01-10 18:00:00,36.5,24.3,29.82,SSE,167,1.0,1.0,61,0.00,,,0.00,Wunderground v.1.15,2013-01-11 00:00:00,
2013-01-10 18:30:00,36.7,23.7,29.80,SE,130,1.0,1.0,59,0.00,,,0.00,Wunderground v.1.15,2013-01-11 00:30:00,
2013-01-10 19:00:00,35.3,26.8,29.78,ESE,111,1.0,2.0,71,0.00,,,0.00,Wunderground v.1.15,2013-01-11 01:00:00,
2013-01-10 19:30:00,33.8,27.4,29.76,South,178,1.0,4.0,77,0.00,,,0.00,Wunderground v.1.15,2013-01-11 01:30:00,
2013-01-10 20:00:00,33.4,28.5,29.74,South,175,0.0,1.0,82,0.00,,,0.00,Wunderground v.1.15,2013-01-11 02:00:00,
2013-01-10 20:30:00,32.6,29.2,29.71,SE,133,1.0,1.0,87,0.00,,,0.00,Wunderground v.1.15,2013-01-11 02:30:00,
2013-01-10 21:00:00,32.2,29.3,29.70,ESE,115,1.0,2.0,89,0.00,,,0.00,Wunderground v.1.15,2013-01-11 03:00:00,
2013-01-10 21:30:00,32.1,29.5,29.68,SSW,210,1.0,1.0,90,0.00,,,0.00,Wunderground v.1.15,2013-01-11 03:30:00,
2013-01-10 22:00:00,32.1,29.8,29.67,SSE,161,1.0,1.0,91,0.00,,,0.03,Wunderground v.1.15,2013-01-11 04:00:00,
2013-01-10 22:30:00,32.0,29.9,29.65,SSE,157,1.0,5.0,92,0.00,,,0.03,Wunderground v.1.15,2013-01-11 04:30:00,
2013-01-10 23:30:00,32.0,29.9,29.61,ESE,111,1.0,1.0,92,0.00,,,0.03,Wunderground v.1.15,2013-01-11 05:30:00,